Regional Weather Roundup
Issued by NWS Grand Forks, ND

Home | Current Version | Previous Version | Graphics & Text | Print | Product List | Glossary On
Versions: 1 2 3 4 5 6 7 8 9 10 11 12 13 14 15 16 17 18 19 20 21 22 23 24 25 26 27 28 29 30 31 32 33 34 35 36 37 38 39 40 41 42 43 44 45 46 47 48 49 50
000
ASUS43 KFGF 271410
RWRFGF
PRAIRIE TO PINES  WEATHER ROUNDUP
NATIONAL WEATHER SERVICE EASTERN NORTH DAKOTA/GRAND FORKS ND
900 AM CDT SUN MAY 27 2018

 **SATELLITE DATA USED TO AUGMENT SKY COVER AT AUTOMATED STATIONS**
 *****  WEATHER ACROSS EASTERN NORTH DAKOTA  *****

CITY           SKY/WX    TMP DP  RH WIND       PRES   REMARKS
GRAND FORKS    LGT RAIN  64  63  96 NE17G28   29.79F
GRAND FRKS AFB FAIR      64  64 100 E18G24    29.77F
GRAND FRKS NWS   N/A     64  61  90 NE12      29.79F
DEVILS LAKE    FAIR      64  61  90 SE13      29.79R FOG
FARGO          LGT RAIN  65  62  90 NW23G32   29.93R
WAHPETON ARPT  FAIR      66  57  72 SE6       29.81F
$$

 ***** WEATHER ACROSS CENTRAL AND WESTERN NORTH DAKOTA  *****

CITY           SKY/WX    TMP DP  RH WIND       PRES   REMARKS
BISMARCK       FAIR      67  59  75 NE20G28   29.73F
MINOT          FAIR      65  61  87 NE15      29.80F
JAMESTOWN      FAIR      64  62  93 N12       29.84R THUNDER
MINOT AFB      FAIR      65  61  86 E16       29.78F
GARRISON         N/A     63  60  90 N15G21    29.81R
WILLISTON      FAIR      67  59  75 CALM      29.90R
DICKINSON      FAIR      64  57  78 N14       29.85R
HETTINGER      FAIR      65  56  72 NE14      29.83S
$$

 *****  OTHER AIRPORT OBSERVATIONS IN OUR AREA  *****

CITY           SKY/WX    TMP DP  RH WIND       PRES   REMARKS
WALHALLA       FAIR      63  63 100 E15G24    29.73F FOG
GRAFTON AIRPOR PTSUNNY   63  63 100 E20G33    29.76F FOG
VALLEY CITY AR FAIR      66  66 100 E13G22    29.83F
CANDO          FAIR      64  64 100 NW13      29.87R
CAVALIER APRT  LGT RAIN  63  63 100 NE14      29.76F
GWINNER          N/A     66  63  88 NE25      29.87R
SHEYENNE NWR     N/A     66  61  84 NW18      29.95S
ROLLA          CLOUDY    61  61 100 N10       29.88R FOG
 ***** THE ABOVE OBSERVATIONS ARE NON NWS ARE NOT QUALITY
       CONTROLLED AND MAY MIS-REPORT RAIN FOR SNOW...
$$

  *****  WEATHER ACROSS NORTHERN MINNESOTA  *****

CITY           SKY/WX    TMP DP  RH WIND       PRES   REMARKS
FLAG ISLAND    FAIR      68  61  77 CALM      29.85F
WARROAD        FAIR      66  63  88 NE3       29.88S
ROSEAU         FAIR      64  59  82 CALM      29.87S
HALLOCK        LGT RAIN  63  61  94 CALM      29.89S
THF RVR FALLS  LGT RAIN  67  58  72 W18G25    29.94R
BAUDETTE         N/A    N/A N/A N/A MISG      29.86R
WASKISH        FAIR      70  64  83 CALM      29.87S
CROOKSTON      HVY RAIN  63  61  94 NW23G32   29.96R
STEPHEN NDAWN    N/A    N/A N/A N/A NE6         N/A
GREENBUSH NDAW   N/A    N/A N/A N/A W10         N/A
$$
  *****  WEATHER ACROSS CENTRAL AND WEST MINNESOTA  *****

CITY           SKY/WX    TMP DP  RH WIND       PRES   REMARKS
FOSSTON        LGT RAIN  64  55  72 SW13      29.94R
BEMIDJI        FAIR      67  60  77 SW3       29.89R
PARK RAPIDS    FAIR      62  58  86 CALM      29.90R
ELBOW LAKE     DRIZZLE   65  60  85 S12       29.86F
WADENA         LGT RAIN  66  55  68 W9G17     29.92R
DETROIT LAKES  FAIR      66  59  77 CALM      29.88S
MOORHEAD       LGT RAIN  64  61  88 NW25G33   29.92R
FERGUS FALLS   FAIR      72  57  60 E7        29.76F
MORRIS MN      TSTM      64  61  88 E5        29.92R
STAPLES        FAIR      63  55  77 W12       29.91R
$$
  *****  WEATHER ELSEWHERE ACROSS MINNESOTA  *****

CITY           SKY/WX    TMP DP  RH WIND       PRES   REMARKS
DULUTH         FAIR      77  61  57 W8        29.87R
INTRNTL FALLS  FAIR      72  62  71 CALM      29.87R
ELY            FAIR      73  59  60 CALM      29.86R
CLOQUET        FAIR      73  57  56 W3        29.88R
WHEATON        NOT AVBL
BRAINERD       FAIR      70  58  65 CALM      29.88R
HIBBING        FAIR      66  59  78 CALM      29.87R
ALEXANDRIA     LGT RAIN  68  58  70 NW13      29.96R
SAINT CLOUD    FAIR      73  59  61 CALM      29.86R
MINNEAPOLIS    PTSUNNY   80  61  52 SW5       29.84R
$$

  *****  WEATHER ACROSS SOUTH DAKOTA  *****

CITY           SKY/WX    TMP DP  RH WIND       PRES   REMARKS
SIOUX FALLS    PTSUNNY   80  63  55 S6        29.82R
BROOKINGS      FAIR      76  58  53 S12       29.82F
WATERTOWN      FAIR      74  58  57 NE14      29.83R
HURON          FAIR      76  60  57 S13       29.75F
SISSETON         N/A     70  62  76 SE12      29.81F
ABERDEEN       FAIR      78  59  51 E12       29.78R
MITCHELL       FAIR      77  63  61 S7        29.78S
PIERRE         FAIR      75  61  61 SE6       29.72R
MOBRIDGE       FAIR      76  61  59 NE15      29.72S
RAPID CITY     FAIR      67  55  65 N24G36    29.85R
$$

  *****  SOME WEATHER IN NEARBY STATES *****

CITY           SKY/WX    TMP DP  RH WIND       PRES   REMARKS
GLASGOW MT     FAIR      68  57  68 N15       29.91R
GREAT FALLS MT FAIR      63  51  65 W8        30.06R
CHEYENNE WY    FAIR      62  52  69 N24G35    29.97R
SCOTTSBLUFF NE FAIR      69  56  62 W10       29.84R
OMAHA NE       FAIR      82  65  56 S5        29.85R
DES MOINES IA  FAIR      80  71  74 CALM      29.83S
DAVENPORT IA   FAIR      80  68  66 S3        29.87S
CHICAGO IL     FAIR      83  68  60 SW3       29.87R
EAU CLAIRE WI  FAIR      76  64  66 CALM      29.84R
LA CROSSE WI   FAIR      77  68  73 VRB3      29.83R
$$

  *****  SOME NATIONAL WEATHER *****

CITY           SKY/WX    TMP DP  RH WIND       PRES   REMARKS
LA GUARDIA NY  RAIN      61  59  93 NE14      30.00S FOG
RALEIGH NC     CLOUDY    75  72  90 SW8       30.03S
ATLANTA GA     PTSUNNY   77  67  71 VRB5      29.98S
NEW ORLEANS LA PTSUNNY   80  74  81 NE8       29.85R
OKLAHOMA CITY  FAIR      75  69  81 SE8       29.90R
ALBUQUERQUE NM FAIR      65  22  19 W5        30.01R
SALT LAKE CITY PTSUNNY   57  48  72 VRB5      29.90R
LOS ANGELES CA PTSUNNY   61  53  75 CALM      29.96R
BOISE ID       FAIR      54  45  71 NW9       29.99R
SEATTLE WA     FAIR      55  46  71 NE5       30.27R
$$

*** WEATHER ACROSS MANITOBA...SASKATCHEWAN AND ONTARIO ***
                ***ONTARIO***

CITY           SKY/WX    TMP DP  RH WIND       PRES   REMARKS
GERALDTON      CLOUDY    52  52 100 W6        29.81R
THUNDER BAY    FOG       54  54 100 NE3       29.83R VSB 3/8
SIOUX LOOKOUT  FOG       59  57  94 NW7       29.84R VSB 3/4
TORONTO        MOSUNNY   72  63  73 VRB3      29.93S
BIG TROUT LK   CLOUDY    48  45  87 S3        29.73F
PICKLE LAKE    CLOUDY    52  50  93 NW5       29.80R FOG
DRYDEN         SUNNY     66  59  77 W8        29.86R
KENORA         CLOUDY    66  61  82 CALM      29.87R
$$
                *** MANITOBA***

CITY           SKY/WX    TMP DP  RH WIND       PRES   REMARKS
BRANDON        PTSUNNY   63  61  94 S8        29.82R
DAUPHIN        CLOUDY    70  59  68 W13       29.79S
ISLAND LAKE    PTSUNNY   55  52  88 SW7       29.78R
PILOT MOUND      N/A     63  59  88 N8          N/A
THE PAS        SUNNY     63  55  77 NW7       29.81R
THOMPSON       PTSUNNY   64  52  63 W7        29.70R
WINNIPEG       CLOUDY    64  61  88 NW6       29.86S
LYNN LAKE      SUNNY     57  46  67 W12       29.73R
CHURCHILL      MOSUNNY   57  46  67 W12G20    29.50S
GILLAM         PTSUNNY   59  50  72 W13       29.64S
$$
                ***SASKATCHEWAN***

CITY           SKY/WX    TMP DP  RH WIND       PRES   REMARKS
ESTEVAN        PTSUNNY   64  59  82 SE14      29.88R
KINDERSLEY     CLOUDY    57  39  51 N10       30.03R
LLOYDMINSTER   PTSUNNY   61  43  51 W9        30.01R
PRINCE ALBERT  PTSUNNY   54  48  82 W7        29.95R
REGINA         CLOUDY    64  57  77 N14       29.91R
YORKTON        MOSUNNY   64  59  82 N14G21    29.85R
N. BATTLEFORD  CLOUDY    54  46  76 SW3       30.02R
LA RONGE       PTSUNNY   59  46  63 W9        29.88R
SASKATOON      PTSUNNY   52  48  87 NW9       29.98S
SWIFT CURRENT  SUNNY     57  50  77 NE10      29.99R
$$
NOTE: THESE ARE AUTOMATED STATIONS WITH LIMITED QUALITY CONTROL
      "FAIR" INDICATES FEW OR NO CLOUDS BELOW 12,000 FEET WITH NO
      SIGNIFICANT WEATHER AND/OR OBSTRUCTIONS TO VISIBILITY.
      SKY/WX - SKY CONDITION AND SIGNIFICANT WEATHER.
      TMP - AIR TEMPERATURE.    DP   - DEWPOINT TEMPERATURE.
      RH  - RELATIVE HUMIDITY.  PRES - PRESSURE.
      HX  - HEAT INDEX.         WCI  - WIND CHILL INDEX.
$



USA.gov is the U.S. government's official web portal to all federal, state and local government web resources and services.